Tracking 35237 objects as of 5-Sep-2026
HD Live streaming from Space Station
objects crossing your sky now

DELTA 1 DEB

Track DELTA 1 DEB now!
10-day predictions


NORAD ID: 21493
Int'l Code: 1975-052FN
Launch date: June 12, 1975
Source: United States (US)
Launch site: AIR FORCE WESTERN TEST RANGE (AFWTR)

Note: This is SATELLITE DEBRIS
Your satellite tracking list
Your tracking list is empty




NASA's NSSDC Master Catalog

Two Line Element Set (TLE):
1 21493U 75052FN  26247.68895255  .00000527  00000-0  22582-2 0  9992
2 21493  99.6645 329.7061 0715615 238.5769 286.0878 12.23714083562130
Source of the keplerian elements: AFSPC